Flag for Japan Weather past 2 weeks in Minamisōma, Japan

Now
63 °F

Partly sunny.


Feels Like: 63 °F
Forecast: 51 / 78 °F
Wind: 12 mph from Southeast

Location: Sendai Airport

Current Time: May 25, 2015 at 4:33:39 PM

Latest Report: May 25, 2015 at 4:00 PM


Visibility: N/A

Pressure: 29.86 "Hg

Humidity: 83%

Dew point: 57 °F

Location of MinamisōmaLocation

Historic Weather in Minamisōma — Graph

°F

Minamisōma temperature yesterday

Maximum temperature yesterday: 75 °F (at 1:00 PM)
Minimum temperature yesterday: 61 °F (at 6:00 AM)
Average temperature yesterday: 69 °F

Past Weeks' High & Low Weather Summary

 TemperatureHumidityPressure
High84 °F (May 14, 1:00 PM)100% (May 12, 9:00 PM)30.18 "Hg (May 12, 9:00 PM)
Low52 °F (May 11, 6:00 AM)17% (May 17, 2:04 PM)29.50 "Hg (May 13, 6:00 AM)
Average66 °F56%29.77 "Hg
* Reported May 10 3:00 PM — May 25 3:00 PM, Minamisōma, Weather by CustomWeather, © 2015

Note: Actual official high and low records may vary slightly from our data, if they occured in-between our weather recording intervals... More about our weather records

Advertising

Minamisōma weather history for previous 24 hours

 ConditionsComfort  
Time TempWeatherWind HumidityBarometerVisibility
3:00 PM
Mon, May 25
63 °FPartly sunny.14 mph83%29.86 "HgN/A
2:00 PM64 °FPartly sunny.13 mph68%29.86 "HgN/A
1:00 PM66 °FSunny.12 mph52%29.86 "Hg10 mi
12:00 PM68 °FPassing clouds.12 mph49%29.89 "HgN/A
11:00 AM66 °FSunny.14 mph52%29.89 "Hg10 mi
10:00 AM64 °FSunny.10 mph60%29.89 "Hg10 mi
9:00 AM68 °FSunny.9 mph46%29.89 "Hg10 mi
8:00 AM70 °FPassing clouds.7 mph43%29.89 "HgN/A
7:00 AM66 °FSunny.6 mph60%29.89 "Hg10 mi
6:00 AM61 °FSunny.8 mph72%29.86 "Hg10 mi
9:00 PM
Sun, May 24
63 °FClear.3 mph77%29.74 "Hg10 mi
8:00 PM63 °FClear.3 mph77%29.74 "Hg10 mi
7:00 PM64 °FPassing clouds.6 mph73%29.71 "HgN/A
6:00 PM68 °FPassing clouds.5 mph60%29.71 "HgN/A
5:00 PM70 °FSunny.12 mph60%29.71 "Hg10 mi
4:00 PM73 °FScattered clouds.13 mph47%29.71 "HgN/A
Weather by CustomWeather, © 2015

See weather overviewHow to use our weather pages